TimeEST,TemperatureF,Dew PointF,Humidity,Sea Level PressureIn,VisibilityMPH,Wind Direction,Wind SpeedMPH,Gust SpeedMPH,PrecipitationIn,Events,Conditions,WindDirDegrees,DateUTC
12:15 AM,26.8,25.0,93,30.01,10.0,Calm,Calm,-,N/A,,Clear,0,2013-02-25 05:15:00
12:35 AM,26.6,24.8,93,30.01,10.0,Calm,Calm,-,N/A,,Clear,0,2013-02-25 05:35:00
12:55 AM,26.8,25.2,94,30.02,10.0,Calm,Calm,-,N/A,,Clear,0,2013-02-25 05:55:00
1:15 AM,26.1,23.9,92,30.01,10.0,Calm,Calm,-,N/A,,Clear,0,2013-02-25 06:15:00
1:35 AM,26.8,25.5,95,30.01,10.0,Calm,Calm,-,N/A,,Clear,0,2013-02-25 06:35:00
1:55 AM,26.6,24.8,93,30.01,10.0,Calm,Calm,-,N/A,,Clear,0,2013-02-25 06:55:00
2:15 AM,27.1,25.3,93,30.00,10.0,Calm,Calm,-,N/A,,Clear,0,2013-02-25 07:15:00
2:35 AM,27.0,24.8,92,30.01,10.0,Calm,Calm,-,N/A,,Clear,0,2013-02-25 07:35:00
2:55 AM,27.5,25.7,93,30.01,10.0,Calm,Calm,-,N/A,,Clear,0,2013-02-25 07:55:00
3:15 AM,27.5,25.7,93,30.00,10.0,Calm,Calm,-,N/A,,Clear,0,2013-02-25 08:15:00
3:35 AM,28.0,26.1,92,30.00,10.0,Calm,Calm,-,N/A,,Clear,0,2013-02-25 08:35:00
3:55 AM,28.0,25.7,91,30.00,10.0,Calm,Calm,-,N/A,,Clear,0,2013-02-25 08:55:00
4:15 AM,28.0,26.1,92,30.01,10.0,Calm,Calm,-,N/A,,Clear,0,2013-02-25 09:15:00
4:35 AM,28.0,26.1,92,30.00,10.0,Calm,Calm,-,N/A,,Clear,0,2013-02-25 09:35:00
4:55 AM,28.4,26.4,92,30.01,10.0,Calm,Calm,-,N/A,,Clear,0,2013-02-25 09:55:00
5:15 AM,28.4,26.6,93,30.01,10.0,Calm,Calm,-,N/A,,Clear,0,2013-02-25 10:15:00
5:35 AM,28.9,26.6,91,30.01,10.0,Calm,Calm,-,N/A,,Clear,0,2013-02-25 10:35:00
5:55 AM,29.1,26.6,90,30.02,10.0,Calm,Calm,-,N/A,,Clear,0,2013-02-25 10:55:00
6:15 AM,28.9,26.8,92,30.02,10.0,Calm,Calm,-,N/A,,Clear,0,2013-02-25 11:15:00
6:35 AM,29.1,26.6,90,30.03,10.0,Calm,Calm,-,N/A,,Clear,0,2013-02-25 11:35:00
6:55 AM,29.1,27.0,92,30.03,10.0,Calm,Calm,-,N/A,,Clear,0,2013-02-25 11:55:00
7:15 AM,29.1,27.3,93,30.03,10.0,Calm,Calm,-,N/A,,Clear,0,2013-02-25 12:15:00
7:35 AM,29.3,27.5,93,30.03,10.0,Calm,Calm,-,N/A,,Clear,0,2013-02-25 12:35:00
7:55 AM,29.7,27.5,92,30.04,10.0,Calm,Calm,-,N/A,,Clear,0,2013-02-25 12:55:00
8:15 AM,30.2,27.7,90,30.06,10.0,Calm,Calm,-,N/A,,Clear,0,2013-02-25 13:15:00
8:35 AM,30.7,27.3,87,30.06,10.0,Calm,Calm,-,N/A,,Clear,0,2013-02-25 13:35:00
8:55 AM,31.1,27.7,87,30.08,10.0,Calm,Calm,-,N/A,,Clear,0,2013-02-25 13:55:00
9:15 AM,32.0,28.8,88,30.08,10.0,Calm,Calm,-,N/A,,Clear,0,2013-02-25 14:15:00
9:35 AM,32.5,29.3,88,30.08,10.0,Calm,Calm,-,N/A,,Clear,0,2013-02-25 14:35:00
9:55 AM,33.4,29.3,85,30.08,10.0,Calm,Calm,-,N/A,,Clear,0,2013-02-25 14:55:00
10:15 AM,34.2,29.7,84,30.07,10.0,Calm,Calm,-,N/A,,Clear,0,2013-02-25 15:15:00
10:35 AM,35.2,30.4,82,30.06,10.0,Calm,Calm,-,N/A,,Clear,0,2013-02-25 15:35:00
10:55 AM,36.7,30.9,80,30.05,10.0,Calm,Calm,-,N/A,,Clear,0,2013-02-25 15:55:00
11:15 AM,37.9,31.3,77,30.04,10.0,Calm,Calm,-,N/A,,Clear,0,2013-02-25 16:15:00
11:35 AM,39.7,31.6,73,30.04,10.0,Calm,Calm,-,N/A,,Clear,0,2013-02-25 16:35:00
11:55 AM,41.0,30.6,66,30.04,10.0,Calm,Calm,-,N/A,,Clear,0,2013-02-25 16:55:00
12:15 PM,43.2,30.7,62,30.03,10.0,Calm,Calm,-,N/A,,Clear,0,2013-02-25 17:15:00
12:35 PM,44.8,27.0,50,30.01,10.0,Calm,Calm,-,N/A,,Clear,0,2013-02-25 17:35:00
12:55 PM,45.5,27.1,49,30.02,10.0,Calm,Calm,-,N/A,,Clear,0,2013-02-25 17:55:00
1:15 PM,46.4,27.5,48,30.00,10.0,Calm,Calm,-,N/A,,Clear,0,2013-02-25 18:15:00
1:35 PM,47.5,27.0,45,30.00,10.0,ENE,3.5,-,N/A,,Clear,70,2013-02-25 18:35:00
1:55 PM,48.2,26.8,43,30.00,10.0,ENE,3.5,-,N/A,,Clear,60,2013-02-25 18:55:00
2:15 PM,48.7,27.5,44,29.99,10.0,NE,6.9,-,N/A,,Clear,50,2013-02-25 19:15:00
2:35 PM,49.6,27.7,43,29.98,10.0,NE,5.8,-,N/A,,Scattered Clouds,50,2013-02-25 19:35:00
2:55 PM,50.5,26.1,39,29.97,10.0,Calm,Calm,-,N/A,,Overcast,0,2013-02-25 19:55:00
3:15 PM,51.3,26.6,38,29.96,10.0,Calm,Calm,-,N/A,,Overcast,0,2013-02-25 20:15:00
3:35 PM,52.2,26.1,36,29.95,10.0,Calm,Calm,-,N/A,,Overcast,0,2013-02-25 20:35:00
3:55 PM,52.7,27.3,38,29.95,10.0,South,4.6,-,N/A,,Overcast,190,2013-02-25 20:55:00
4:15 PM,52.7,27.3,38,29.94,10.0,South,3.5,-,N/A,,Overcast,180,2013-02-25 21:15:00
4:35 PM,52.7,27.1,37,29.94,10.0,South,4.6,-,N/A,,Overcast,190,2013-02-25 21:35:00
4:55 PM,52.7,26.4,36,29.94,10.0,SSW,3.5,-,N/A,,Overcast,200,2013-02-25 21:55:00
5:15 PM,52.2,27.0,38,29.93,10.0,Calm,Calm,-,N/A,,Overcast,0,2013-02-25 22:15:00
5:35 PM,52.2,28.2,40,29.92,10.0,Calm,Calm,-,N/A,,Overcast,0,2013-02-25 22:35:00
5:55 PM,51.4,30.4,44,29.92,10.0,SSE,4.6,-,N/A,,Overcast,160,2013-02-25 22:55:00
6:15 PM,50.9,32.0,48,29.92,10.0,SSE,3.5,-,N/A,,Overcast,160,2013-02-25 23:15:00
6:35 PM,50.4,32.4,50,29.92,10.0,SSW,5.8,-,N/A,,Overcast,200,2013-02-25 23:35:00
6:55 PM,50.0,32.5,51,29.92,10.0,Calm,Calm,-,N/A,,Overcast,0,2013-02-25 23:55:00
7:15 PM,49.5,32.4,52,29.92,10.0,Calm,Calm,-,N/A,,Overcast,0,2013-02-26 00:15:00
7:35 PM,48.9,32.2,52,29.92,10.0,South,6.9,-,N/A,,Overcast,170,2013-02-26 00:35:00
7:55 PM,48.2,32.5,55,29.93,10.0,SSW,4.6,-,N/A,,Overcast,200,2013-02-26 00:55:00
8:15 PM,47.7,32.5,56,29.93,10.0,South,3.5,-,N/A,,Overcast,190,2013-02-26 01:15:00
8:55 PM,46.9,33.1,59,29.94,10.0,SW,3.5,-,N/A,,Overcast,230,2013-02-26 01:55:00
9:15 PM,46.6,34.2,62,29.94,10.0,SE,3.5,-,N/A,,Overcast,140,2013-02-26 02:15:00
9:35 PM,46.6,35.8,66,29.93,10.0,Calm,Calm,-,N/A,,Overcast,0,2013-02-26 02:35:00
9:55 PM,45.3,36.3,71,29.93,10.0,Calm,Calm,-,N/A,,Overcast,0,2013-02-26 02:55:00
10:15 PM,45.1,36.5,72,29.92,10.0,SSE,4.6,-,N/A,,Overcast,150,2013-02-26 03:15:00
10:35 PM,44.6,37.4,76,29.92,10.0,SSE,4.6,-,N/A,,Light Drizzle,160,2013-02-26 03:35:00
10:55 PM,44.2,37.6,77,29.92,10.0,ESE,3.5,-,N/A,,Overcast,110,2013-02-26 03:55:00
11:15 PM,43.7,37.8,80,29.92,10.0,ENE,4.6,-,N/A,,Overcast,70,2013-02-26 04:15:00
11:35 PM,43.0,38.5,84,29.91,10.0,East,3.5,-,N/A,,Overcast,80,2013-02-26 04:35:00
11:55 PM,42.8,38.8,86,29.89,10.0,Calm,Calm,-,N/A,,Overcast,0,2013-02-26 04:55:00